Weather History for Rochester, NY

Change the Weather History Date:

Saturday, November 5, 2011

  Actual Average Record
Temperature  
Mean Temperature 38 °F 44 °F  
Max Temperature 50 °F 52 °F 74 °F (1948)
Min Temperature 26 °F 36 °F 15 °F (1951)
Degree Days  
Heating Degree Days 27 21  
Month to date heating degree days 97 101  
Since 1 July heating degree days 603 734  
Cooling Degree Days 0 0  
Month to date cooling degree days 0 0  
Year to date cooling degree days 695 539  
Moisture  
Dew Point 24 °F    
Average Humidity 64    
Maximum Humidity 92    
Minimum Humidity 36    
Precipitation  
Precipitation 0.00 in 0.09 in 1.77 in (1985)
Month to date precipitation T 0.49  
Year to date precipitation 35.51 29.19  
Snow  
Snow 0.00 in 0.10 in 1.20 in (1966)
Month to date snowfall 0.0 0.5  
Since 1 July snowfall T 0.6  
Since 1 September snowfall T 0.6  
Snow Depth 0.00 in    
Sea Level Pressure  
Sea Level Pressure 30.43 in    
Wind  
Wind Speed 3 mph (SE)    
Max Wind Speed 12 mph    
Max Gust Speed 15 mph    
Visibility 10 miles    
Events      
T = Trace of Precipitation, MM = Missing Value Source: NWS Daily Summary

Daily Weather History Graph

Daily Weather History Graph

Search for Another Location

Airport:

Trip Planner

Search our weather history database for the weather conditions in past years. The results will help you decide how hot, cold, wet, or windy it might be!

Date:

Astronomy

Nov. 05, 2011 Rise Set
Actual Time 7:50 AM EDT 5:57 PM EDT
Civil Twilight 7:20 AM EDT 6:27 PM EDT
Nautical Twilight 6:46 AM EDT 7:01 PM EDT
Astronomical Twilight 6:13 AM EDT 7:34 PM EDT
Moon 3:21 PM EDT (11/5) 2:51 AM EDT (11/5)
Length of Visible Light 11h 07m
Length of Day
10h 07m
Waxing Gibbous, 78% of the Moon is Illuminated
Nov 5
Waxing Gibbous
Nov 10
Full
Nov 18
Last Quarter
Nov 25
New
Dec 2
First Quarter

Hourly Weather History & Observations

Time (EDT) Temp. Windchill Dew Point Humidity Pressure Visibility Wind Dir Wind Speed Gust Speed Precip Events Conditions
12:54 AM 34.0 °F 28.8 °F 26.1 °F 73% 30.40 in 10.0 mi SE 5.8 mph - N/A   Partly Cloudy
1:54 AM 30.9 °F - 25.0 °F 79% 30.42 in 10.0 mi Calm Calm - N/A   Partly Cloudy
2:54 AM 30.0 °F - 25.0 °F 82% 30.43 in 10.0 mi Calm Calm - N/A   Partly Cloudy
3:54 AM 28.9 °F - 25.0 °F 85% 30.43 in 10.0 mi Calm Calm - N/A   Clear
4:54 AM 28.0 °F - 24.1 °F 85% 30.44 in 10.0 mi Calm Calm - N/A   Clear
5:54 AM 27.0 °F - 24.1 °F 89% 30.46 in 10.0 mi Calm Calm - N/A   Clear
6:54 AM 27.0 °F - 24.1 °F 89% 30.46 in 10.0 mi Calm Calm - N/A   Clear
7:54 AM 26.1 °F - 23.0 °F 88% 30.47 in 10.0 mi Calm Calm - N/A   Clear
8:54 AM 28.9 °F - 26.1 °F 89% 30.48 in 10.0 mi Calm Calm - N/A   Clear
9:54 AM 34.0 °F - 28.0 °F 79% 30.48 in 10.0 mi Calm Calm - N/A   Partly Cloudy
10:54 AM 39.9 °F 33.4 °F 26.1 °F 58% 30.49 in 10.0 mi SE 10.4 mph - N/A   Partly Cloudy
11:54 AM 43.0 °F 38.2 °F 25.0 °F 49% 30.50 in 10.0 mi SE 8.1 mph - N/A   Partly Cloudy
12:54 PM 45.0 °F 41.2 °F 24.1 °F 44% 30.47 in 10.0 mi SE 6.9 mph - N/A   Partly Cloudy
1:54 PM 46.9 °F - 23.0 °F 39% 30.45 in 10.0 mi SE 3.5 mph - N/A   Partly Cloudy
2:54 PM 48.0 °F - 24.1 °F 39% 30.43 in 10.0 mi SE 6.9 mph - N/A   Partly Cloudy
3:54 PM 50.0 °F - 25.0 °F 38% 30.41 in 10.0 mi ESE 4.6 mph - N/A   Scattered Clouds
4:54 PM 48.9 °F - 24.1 °F 38% 30.39 in 10.0 mi ESE 6.9 mph - N/A   Scattered Clouds
5:54 PM 46.9 °F - 24.1 °F 41% 30.39 in 10.0 mi ESE 5.8 mph - N/A   Partly Cloudy
6:54 PM 43.0 °F 38.8 °F 25.0 °F 49% 30.38 in 10.0 mi ESE 6.9 mph - N/A   Partly Cloudy
7:54 PM 41.0 °F 37.1 °F 25.0 °F 53% 30.38 in 10.0 mi ESE 5.8 mph - N/A   Partly Cloudy
8:54 PM 39.0 °F - 25.0 °F 57% 30.38 in 10.0 mi Calm Calm - N/A   Clear
9:54 PM 34.0 °F - 25.0 °F 70% 30.38 in 10.0 mi Calm Calm - N/A   Clear
10:54 PM 37.9 °F 34.4 °F 21.0 °F 51% 30.38 in 10.0 mi South 4.6 mph - N/A   Clear
11:54 PM 37.9 °F 33.5 °F 19.0 °F 47% 30.36 in 10.0 mi South 5.8 mph - N/A   Clear